PDT,Max TemperatureF,Mean TemperatureF,Min TemperatureF,Max Dew PointF,MeanDew PointF,Min DewpointF,Max Humidity, Mean Humidity, Min Humidity, Max Sea Level PressureIn, Mean Sea Level PressureIn, Min Sea Level PressureIn, Max VisibilityMiles, Mean VisibilityMiles, Min VisibilityMiles, Max Wind SpeedMPH, Mean Wind SpeedMPH, Max Gust SpeedMPH,PrecipitationIn, CloudCover, Events, WindDirDegrees
2013-6-1,68,57,46,52,47,43,93,73,49,30.28,30.18,30.08,10,10,10,12,3,,0.00,,,311
2013-6-2,66,58,51,52,48,45,88,69,49,30.12,30.09,30.06,10,10,10,13,8,,0.00,,,316
2013-6-3,69,56,44,55,49,39,93,74,56,30.14,30.11,30.09,10,10,10,13,3,17,0.00,,,313
2013-6-4,75,60,46,57,50,43,93,69,47,30.16,30.11,30.05,10,10,3,15,4,,0.00,,,312
2013-6-5,73,60,48,57,51,43,93,75,53,30.13,30.09,30.06,10,10,10,15,6,18,0.00,,,325
2013-6-6,55,50,46,52,47,45,94,89,82,30.08,30.07,30.06,10,8,0,0,0,,0.00,,,-1
2013-6-7,66,58,51,50,47,43,77,60,49,30.19,30.13,30.07,10,10,10,14,7,17,0.00,,,237
2013-6-8,64,56,48,50,46,43,87,69,55,30.21,30.18,30.14,10,10,10,16,6,20,0.00,,,330
2013-6-9,64,57,50,46,45,41,82,67,45,30.15,30.12,30.07,10,10,10,14,5,21,0.00,,,308
2013-6-10,68,54,39,50,45,37,93,70,46,30.08,29.98,29.91,10,10,10,12,4,,0.00,,,311
2013-6-11,62,55,48,46,45,43,87,68,48,30.12,30.03,29.97,10,10,8,15,4,16,0.00,,,158
2013-6-12,68,58,48,48,45,43,87,65,43,30.17,30.14,30.12,10,10,8,14,7,18,0.00,,,171
2013-6-13,66,58,51,50,48,45,88,71,46,30.25,30.19,30.16,10,10,9,14,3,18,0.00,,,306
2013-6-14,66,58,48,48,47,45,87,68,49,30.26,30.21,30.09,10,10,10,10,4,,0.00,,,223
2013-6-15,75,58,42,55,50,39,93,71,50,30.09,29.99,29.93,10,9,0,13,3,16,0.00,,,301
2013-6-16,64,55,48,54,49,45,94,86,68,30.09,30.05,30.01,10,8,0,0,0,,0.00,,,-1
2013-6-17,75,60,46,54,50,43,94,68,36,30.11,30.02,29.90,10,10,2,14,3,,0.06,,,181
2013-6-18,71,62,53,54,49,39,88,67,31,29.99,29.96,29.89,10,10,8,15,5,18,0.00,4,,177
2013-6-19,66,60,53,52,49,46,94,73,49,30.03,29.97,29.94,10,10,5,13,2,,0.04,7,,263
2013-6-20,57,55,53,52,49,46,94,84,67,30.14,30.04,29.98,10,9,3,8,1,,0.23,8,,331
2013-6-21,66,58,51,52,50,48,94,75,52,30.19,30.16,30.13,10,9,4,8,1,,0.00,6,,325
2013-6-22,75,62,48,55,51,46,93,68,44,30.15,30.02,29.88,10,10,5,9,2,,0.00,1,,308
2013-6-23,69,62,55,61,56,50,94,77,60,29.88,29.75,29.61,10,10,10,6,1,,0.00,6,,358
2013-6-24,66,62,57,61,55,52,94,79,60,29.72,29.66,29.59,10,10,5,17,6,24,0.06,8,,149
2013-6-25,71,63,55,57,54,48,94,77,49,29.88,29.76,29.70,10,10,5,20,5,25,0.08,6,Thunderstorm,141
2013-6-26,69,61,53,59,55,50,94,77,56,30.11,29.97,29.87,10,10,8,13,4,20,0.05,7,,178
2013-6-27,73,65,57,64,59,55,94,82,65,30.22,30.15,30.07,10,10,4,13,2,18,0.00,7,,111
2013-6-28,84,70,57,66,60,55,94,75,45,30.22,30.13,30.06,10,10,4,14,2,,0.00,2,,311
2013-6-29,80,70,60,64,60,55,88,70,54,30.12,30.08,30.02,10,10,3,10,2,,0.00,1,,304
2013-6-30,87,71,55,70,61,54,94,69,55,30.04,29.96,29.87,10,10,10,13,3,,0.00,0,,310